Flag for U.S.A. Weather past 2 weeks in Flagstaff, Arizona, U.S.A.

Now
66 °F

Sunny.


Feels Like: 66 °F
Forecast: 57 / 78 °F
Wind: 6 mph from Southwest

Location: Flagstaff Pulliam Airport

Current Time: Aug 1, 2014 at 9:39:08 AM

Latest Report: Aug 1, 2014 at 8:57 AM


Visibility: 10 mi

Pressure: 30.09 "Hg

Humidity: 59%

Dew point: 51 °F

Location of FlagstaffLocation

Historic Weather in Flagstaff — Graph

°F

Flagstaff temperature yesterday

Maximum temperature yesterday: 79 °F (at 10:57 AM)
Minimum temperature yesterday: 54 °F (at 5:57 AM)
Average temperature yesterday: 62 °F

Past Weeks' High & Low Weather Summary

 TemperatureHumidityPressure
High86 °F (Jul 26, 1:57 PM)97% (Aug 1, 3:57 AM)30.18 "Hg (Aug 1, 3:57 AM)
Low50 °F (Jul 21, 2:57 AM)14% (Jul 25, 12:57 PM)29.87 "Hg (Jul 17, 4:57 PM)
Average68 °F47%30.02 "Hg
* Reported Jul 17 7:57 AM — Aug 1 7:57 AM, Flagstaff, Weather by CustomWeather, © 2014

Note: Actual official high and low records may vary slightly from our data, if they occured in-between our weather recording intervals... More about our weather records

Advertising

Flagstaff weather history for previous 24 hours

 ConditionsComfort  
Time TempWeatherWind HumidityBarometerVisibility
7:57 AM
Aug 1
60 °FPassing clouds.5 mph78%30.12 "Hg10 mi
6:57 AM56 °FMostly cloudy.No wind87%30.12 "Hg10 mi
5:57 AM55 °FMostly cloudy.8 mph87%30.11 "Hg10 mi
4:57 AM53 °FPartly cloudy.No wind96%30.12 "Hg10 mi
3:57 AM52 °FPassing clouds.No wind97%30.12 "Hg10 mi
2:57 AM53 °FClear.No wind93%30.10 "Hg10 mi
1:57 AM54 °FClear.No wind93%30.07 "Hg10 mi
12:57 AM55 °FOvercast.No wind93%30.07 "Hg10 mi
11:57 PM
Jul 31
56 °FPassing clouds.3 mph93%30.04 "Hg10 mi
10:57 PM56 °FMostly cloudy.No wind93%30.03 "Hg10 mi
9:57 PM56 °FOvercast.3 mph93%30.03 "Hg10 mi
8:57 PM57 °FPassing clouds.6 mph90%30.04 "Hg10 mi
7:57 PM57 °FLight rain. Overcast.5 mph90%30.07 "Hg10 mi
6:57 PM57 °FLight rain. Overcast.7 mph87%30.11 "Hg10 mi
5:57 PM58 °FOvercast.No wind90%30.12 "Hg10 mi
4:57 PM59 °FLight rain. Overcast.7 mph90%30.15 "Hg10 mi
3:57 PM57 °FThunderstorms. Fog.5 mph87%30.17 "Hg6 mi
2:57 PM58 °FThunderstorms. Cloudy.6 mph81%30.15 "Hg1 mi
1:57 PM65 °FThunderstorms. Partly sunny.7 mph61%30.06 "Hg10 mi
12:57 PM67 °FPartly sunny.3 mph81%30.03 "Hg10 mi
11:57 AM78 °FPartly sunny.15 mph33%29.97 "Hg10 mi
10:57 AM79 °FPassing clouds.13 mph32%29.97 "Hg10 mi
9:57 AM78 °FPartly sunny.3 mph33%29.99 "Hg10 mi
Weather by CustomWeather, © 2014

See weather overviewHow to use our weather pages